www.pogodaiklimat.ru

Погода и климат >> Архив погоды >> Сейшелы >> Seychelles


АРХИВ ПОГОДЫ в Seychelles

Время (UTC), дата Ветер
(напр.,м/с)
 
Видим.   Явления Облачность Т
(С)
Тd
(С)
f
(%)
Тe
(С)
Тes
(С)
Комфортность P
(гПа)
Po
(гПа)
Тmin
(С)
Tmax
(С)
R
(мм)
R24
(мм)
S
(см)
18 19.06 ЮВ 3 20 км 3/0
[]
+27.0 +24.1 84 +37 +37 очень
душно
1012.8 1013.0
21 19.06 ЮВ 3 20 км 3 балла +26.8 +23.1 80 +36 +36 очень
душно
1011.5 1012.0
00 20.06 Ю 2 20 км 4 балла +26.3 +23.7 86 +36 +36 очень
душно
1010.9 1011.0
03 20.06 ЮВ 2 25 км 6 баллов +26.7 +23.5 83 +36 +37 очень
душно
1012.2 1012.0
06 20.06 ЮВ 3 30 км 5/0
[]
+29.3 +23.8 72 +40 +47 очень
душно
1013.5 1014.0
09 20.06 ЮВ 3 30 км 9 баллов +29.1 +23.9 74 +40 +42 очень
душно
1012.1 1012.0
12 20.06 ЮВ 3 30 км 6 баллов +29.1 +23.9 74 +40 +42 очень
душно
1011.1 1011.0
15 20.06 ЮВ 2 30 км 9 баллов +27.1 +23.9 83 +37 +37 очень
душно
1012.4 1012.0
18 20.06 ЮВ 2 30 км 8/0
[]
+26.8 +24.7 88 +38 +38 очень
душно
1012.9 1013.0
21 20.06 ЮВ 5 30 км 8 баллов +29.0 +23.7 73 +40 +40 очень
душно
1011.1 1011.0
00 21.06 ЮВ 4 30 км 5 баллов +26.7 +23.5 83 +36 +36 очень
душно
1010.4 1010.0
03 21.06 ЮВ 3 30 км 6 баллов +26.7 +24.0 85 +37 +37 очень
душно
1011.7 1012.0
06 21.06 ЮВ 3 20 км 6/0
[]
+29.5 +24.0 72 +41 +47 опасность
перегрева
1013.5 1014.0
09 21.06 ЮВ 3 20 км 6 баллов +30.3 +24.1 69 +42 +47 опасность
перегрева
1011.6 1012.0
12 21.06 ЮВ 7 20 км слабый ливневой дождь 9/8 500 м
[Cu med, cong Ci sp]
+27.9 +23.6 77 +38 +38 очень
душно
1010.6 1011.0
15 21.06 ЮВ 3 20 км 9 баллов +27.1 +23.2 79 +36 +36 очень
душно
1012.0 1012.0
18 21.06 Ю 3 20 км 4/0
[]
+26.8 +23.1 80 +36 +36 очень
душно
1013.4 1013.0
21 21.06 ЮВ 3 20 км 4 балла +26.6 +23.1 81 +36 +36 очень
душно
1012.3 1012.0
00 22.06 ЮВ 4 20 км 5 баллов +26.7 +22.7 79 +35 +35 очень
душно
1011.7 1012.0
03 22.06 ЮВ 4 30 км 6 баллов +26.8 +23.0 80 +36 +36 очень
душно
1012.9 1013.0
06 22.06 ЮВ 4 25 км 8/0
[]
+28.3 +24.0 78 +39 +44 очень
душно
1013.9 1014.0
09 22.06 ЮВ 5 25 км 1 балл +29.6 +22.6 66 +39 +48 очень
душно
1012.4 1012.0
12 22.06 ЮВ 3 30 км 4 балла +28.9 +23.1 71 +39 +41 очень
душно
1011.8 1012.0
15 22.06 ЮВ 3 20 км 9/0
[]
+26.6 +23.2 82 +36 +36 очень
душно
1012.7 1013.0
18 22.06 ЮВ 4 20 км 4/0
[]
+26.9 +22.2 75 +35 +35 очень
душно
1014.0 1014.0
21 22.06 ЮВ 3 20 км 4 балла +26.6 +22.6 79 +35 +35 очень
душно
1013.4 1013.0
00 23.06 ЮВ 4 20 км 3 балла +26.5 +22.4 78 +35 +35 очень
душно
1012.0 1012.0
03 23.06 ЮВ 3 20 км 9 баллов +26.7 +22.7 79 +35 +35 очень
душно
1012.6 1013.0
06 23.06 ЮВ 4 30 км 9/0
[]
+28.7 +23.3 73 +39 +43 очень
душно
1014.1 1014.0
09 23.06 ЮВ 4 30 км 8 баллов +29.7 +22.7 66 +39 +41 очень
душно
1013.0 1013.0
12 23.06 ЮВ 4 30 км 4/0
[]
+28.7 +22.7 70 +38 +41 очень
душно
1011.7 1012.0
15 23.06 ЮВ 4 30 км 8 баллов +27.1 +22.5 76 +36 +36 очень
душно
1012.6 1013.0
18 23.06 ЮВ 4 25 км 1/0
[]
+27.0 +22.5 76 +35 +35 очень
душно
1013.6 1014.0
21 23.06 ЮВ 4 25 км 1 балл +26.5 +21.7 75 +34 +34 очень
душно
1012.9 1013.0
00 24.06 ЮВ 4 25 км 6 баллов +26.4 +21.8 76 +34 +34 очень
душно
1011.5 1012.0
03 24.06 ЮВ 3 25 км 9 баллов +26.3 +20.7 71 +33 +33 очень
душно
1011.9 1012.0
06 24.06 ЮВ 2 20 км 6/0
[]
+28.1 +22.2 70 +37 +45 очень
душно
1013.4 1013.0
09 24.06 ЮВ 4 20 км 8 баллов +29.0 +21.4 64 +37 +39 очень
душно
1011.8 1012.0
12 24.06 ЮВ 2 30 км 9 баллов +27.9 +21.5 68 +36 +36 очень
душно
1010.6 1011.0
15 24.06 ЮВ 2 20 км 9 баллов +26.6 +22.0 76 +34 +34 очень
душно
1011.0 1011.0
18 24.06 Ю 4 20 км 8/0
[]
+26.4 +22.4 79 +35 +35 очень
душно
1011.8 1012.0
21 24.06 ЮВ 5 20 км {ливн. осадки} 8/6 480 м
[Cu med, cong Ac trans Ci sp]
+26.1 +22.4 80 +34 +34 очень
душно
1010.9 1011.0
00 25.06 ЮВ 2 30 км 4 балла +26.3 +20.5 70 +33 +33 очень
душно
1009.8 1010.0
03 25.06 В 1 30 км 9 баллов +26.4 +21.8 76 +34 +34 очень
душно
1010.6 1011.0
06 25.06 ЮВ 2 20 км 9/0
[]
+29.1 +23.0 70 +39 +46 очень
душно
1012.4 1012.0
09 25.06 ЮВ 3 20 км 9/0
[]
+28.5 +22.3 69 +37 +45 очень
душно
1010.5 1011.0
12 25.06 ЮВ 2 25 км 9/0
[]
+27.8 +22.7 74 +37 +40 очень
душно
1009.5 1010.0
15 25.06 ЮВ 2 20 км 9/0
[]
+26.8 +22.4 77 +35 +35 очень
душно
1010.7 1011.0
18 25.06 ЮВ 2 20 км 9/0
[]
+25.8 +22.9 84 +34 +34 очень
душно
1012.0 1012.0
21 25.06 ЮВ 2 20 км 8/0
[]
+26.1 +23.0 83 +35 +35 очень
душно
1011.3 1011.0
00 26.06 ЮВ 2 20 км 8/0
[]
+25.8 +22.5 82 +34 +34 очень
душно
1010.3 1010.0
03 26.06 Ю 1 40 км 9/0
[]
+26.0 +22.8 83 +35 +35 очень
душно
1011.6 1012.0
06 26.06 Ю 2 45 км 9/0
[]
+28.0 +23.7 77 +38 +45 очень
душно
1013.2 1013.0
09 26.06 ЮВ 3 45 км 9 баллов +29.6 +23.4 69 +40 +41 очень
душно
1011.6 1012.0
12 26.06 Ю 2 40 км 8/0
[]
+28.6 +22.7 70 +38 +41 очень
душно
1010.9 1011.0
15 26.06 Ю 2 25 км 8 баллов +26.4 +23.8 86 +36 +36 очень
душно
1011.8 1012.0

 

Местоположение метеостанции Seychelles (Сейшелы): широта -4.67 долгота 55.52 высота над уровнем моря 3 м.

В архиве по умолчанию представлена погода в Seychelles за последнюю неделю. Архивные данные за месяц целиком и за предыдущие месяцы, начиная с января 2011 года, Вы можете получить, выбрав интересующий диапазон дат из раскрывающегося списка и нажав кнопку "Ввод!".

Внимание! Время в таблицах - всемирное. Для получения местного времени необходимо прибавить поправку, которая в Seychelles равна 4 ч.

Смотрите также архив погоды в соседних городах и на ближайших метеорологических станциях:

Погода в Agalega (Маврикий) (655 км)
Погода в Antsiranana (Мадагаскар) (1094 км)
Погода в Iles Glorieuses (Реюньон) (1190 км)
Погода в Sambava (Мадагаскар) (1219 км)
Погода в Serge-Frolow (Реюньон) (1243 км)
Погода в Fascene (Мадагаскар) (1244 км)
Погода в Antalaha (Мадагаскар) (1274 км)
Погода в Mogadiscio (Сомали) (1354 км)
Погода в Saint Brandon Saint Raphael (Маврикий) (1385 км)
Погода в Antsohihy (Мадагаскар) (1404 км)

Пояснения к столбцам:

Ветер - указаны скорость ветра в м/с - средняя за 10 мин, порывы в срок и между сроками (в фигурных скобках) и направление, откуда дует ветер: С - северный, СВ - северо-восточный, В - восточный, ЮВ - юго-восточный, Ю - южный, ЮЗ - юго-западный, З - западный, СЗ - северо-западный.
Видимость - горизонтальная дальность видимости в метрах или километрах. При видимости от 1 до 10 км при отсутствии осадков обычно наблюдается дымка, при ухудшении видимости до 1 км и менее - туман. В сухую погоду видимость может ухудшаться дымом, пылью или мглою.
Явления - указаны атмосферные явления, наблюдавшиеся в срок или в последний час перед сроком; фигурными скобками обозначены явления, наблюдавшиеся между сроками (за 1-3 часа до срока); квадратными скобками обозначены град или гололедные отложения с указанием их диаметра в мм.
Облачность - указаны через наклонную черту общая и нижняя облачность в баллах и высота нижней границы облаков в метрах; квадратными скобками обозначены формы облаков: Ci - перистые, Cs - перисто-слоистые, Cc - перисто-кучевые, Ac - высококучевые, As - высокослоистые, Sc - слоисто-кучевые, Ns - слоисто-дождевые, Cu - кучевые, Cb - кучево-дождевые. Подробнее классификацию облаков см. в Атласе облаков (PDF).
T - Температура воздуха - температура, измеренная на высоте 2 м над землей.
Td - Температура точки росы - температура, при понижении до которой содержащийся в воздухе водяной пар достигнет насыщения.
f - Относительная влажность воздуха - влажноcть воздуха, измеренная на высоте 2 м над землей.
Te - Эффективная температура - температура, которую ощущает одетый по сезону человек в тени. Характеристика душности погоды. При расчете учитывается влияние влажности воздуха и скорости ветра на теплоощущения человека.
Tes - Эффективная температура на солнце - температура, которую ощущает человек, с поправкой на солнечный нагрев. Характеристика знойности погоды. Зависит от высоты солнца над горизонтом, облачности и скорости ветра. Ночью, в пасмурную погоду, а также при ветре 12 м/с и более поправка равна нулю.
P - Атмосферное давление - приведенное к уровню моря атмосферное давление.
Po - Атмосферное давление - измеренное на уровне метеостанции атмосферное давление.
Tmin - Минимальная температура - минимум температуры воздуха на высоте 2 м над землей.
Tmax - Максимальная температура - максимум температуры воздуха на высоте 2 м над землей.
R - Количество осадков - Количество выпавших осадков за период времени, мм. При наведении курсора мыши на число - период времени, за который выпало указанное количество осадков.
R24 - Количество осадков - Количество выпавших осадков за 24 часа, мм.
S - Снежный покров - Высота снежного покрова, см. При наведении курсора мыши на число - состояние снежного покрова и степень покрытия местности в баллах.